DW4273 Weather Reports


Display with metric or nautical units.
time (UTC)temp
F
wind
direction
speed
MPH
gust
MPH
rain 1hr
in
rain 24hr
in
rain mn
in
humidity
%
barometer
mb
20200711084818 68 270 8.0 15.0 0.01 0.26 0.00 94 1002.9
20200711084318 68 251 4.0 13.0 0.01 0.25 0.00 94 1002.9
20200711083822 68 278 3.0 12.0 0.01 0.25 0.00 94 1002.8
20200711083320 68 254 10.0 13.0 0.01 0.25 0.00 94 1002.8
20200711082818 68 304 10.0 12.0 0.01 0.25 0.00 94 1002.8
20200711082318 68 259 11.0 10.0 0.01 0.25 0.00 93 1002.9
20200711081818 68 265 5.0 11.0 0.01 0.25 0.00 93 1002.9
20200711081318 69 298 3.0 13.0 0.01 0.25 0.00 93 1002.8
20200711080819 69 258 11.0 16.0 0.01 0.25 0.00 93 1002.8
20200711080318 69 300 4.0 16.0 0.01 0.25 0.00 93 1002.7
20200711075818 69 238 8.0 13.0 0.01 0.25 0.00 93 1002.7
20200711075318 69 271 7.0 13.0 0.01 0.25 0.00 93 1002.7
20200711074818 69 254 5.0 14.0 0.01 0.25 0.00 93 1002.7
20200711074319 69 253 5.0 13.0 0.00 0.24 0.00 93 1002.8
20200711073819 70 263 8.0 19.0 0.00 0.24 0.00 92 1002.8
20200711073317 70 263 6.0 14.0 0.00 0.24 0.00 92 1002.8
20200711072818 70 261 7.0 11.0 0.00 0.24 0.00 92 1002.7
20200711072318 70 239 5.0 13.0 0.00 0.24 0.00 92 1002.7
20200711071818 70 250 5.0 13.0 0.00 0.24 0.00 91 1002.7
20200711071318 70 255 11.0 13.0 0.00 0.24 0.00 91 1002.7
20200711070819 70 254 7.0 13.0 0.00 0.24 0.00 91 1002.7
20200711070317 70 281 6.0 14.0 0.00 0.24 0.00 91 1002.7
20200711065818 71 242 6.0 12.0 0.00 0.24 0.00 91 1002.7
20200711065319 71 252 5.0 10.0 0.00 0.24 0.00 90 1002.7
20200711064817 71 256 4.0 10.0 0.00 0.24 0.00 90 1002.8
20200711064318 71 290 9.0 14.0 0.00 0.24 0.00 90 1002.8
20200711063817 71 284 7.0 13.0 0.00 0.24 0.00 91 1002.9
20200711063317 71 282 5.0 11.0 0.00 0.24 0.00 91 1002.9
20200711062817 71 254 8.0 11.0 0.00 0.24 0.00 91 1002.8
20200711062317 71 253 3.0 8.0 0.00 0.24 0.00 91 1002.8
20200711061818 71 292 7.0 10.0 0.00 0.24 0.00 91 1002.9
20200711061317 71 266 5.0 12.0 0.00 0.24 0.00 91 1002.9
20200711060817 71 238 5.0 10.0 0.00 0.24 0.00 91 1002.9
20200711060321 71 239 4.0 11.0 0.00 0.24 0.00 91 1003.0
20200711055817 71 260 4.0 9.0 0.00 0.24 0.00 91 1003.1
20200711055317 71 252 8.0 9.0 0.00 0.24 0.00 91 1003.1
20200711054817 71 284 7.0 13.0 0.00 0.24 0.00 91 1003.1
20200711054317 71 282 4.0 13.0 0.00 0.24 0.00 91 1003.1
20200711053817 71 254 5.0 12.0 0.00 0.24 0.00 91 1003.2
20200711053317 71 248 10.0 13.0 0.00 0.24 0.00 92 1003.2
20200711052817 71 241 6.0 11.0 0.00 0.24 0.00 91 1003.1
20200711052317 71 257 6.0 10.0 0.00 0.24 0.00 91 1003.1
20200711051820 71 257 8.0 12.0 0.00 0.24 0.00 91 1003.2
20200711051317 71 250 9.0 14.0 0.00 0.24 0.00 91 1003.2
20200711050819 71 246 9.0 13.0 0.00 0.24 0.00 91 1003.3
20200711050317 71 253 10.0 12.0 0.00 0.24 0.00 91 1003.3
20200711045817 71 259 6.0 10.0 0.00 0.24 0.00 92 1003.4
20200711045317 71 260 8.0 9.0 0.00 0.24 0.00 92 1003.5
20200711044818 71 242 6.0 10.0 0.00 0.24 0.00 92 1003.6
20200711044317 71 243 7.0 12.0 0.00 0.24 0.00 92 1003.7
20200711043818 71 240 5.0 11.0 0.00 0.24 0.00 92 1003.9
20200711043317 71 267 4.0 9.0 0.00 0.24 0.00 92 1003.9
20200711042817 71 283 3.0 8.0 0.00 0.24 0.00 92 1003.9
20200711042317 71 255 5.0 9.0 0.00 0.24 0.00 92 1004.0
20200711041819 72 236 7.0 8.0 0.00 0.24 0.00 92 1004.0
20200711041319 71 248 5.0 11.0 0.00 0.24 0.00 93 1003.9
20200711040817 71 261 6.0 11.0 0.00 0.24 0.00 93 1004.0
20200711040317 71 253 9.0 11.0 0.00 0.24 0.00 93 1003.9
20200711035817 71 248 7.0 9.0 0.00 0.24 0.00 93 1004.0
20200711035318 71 255 9.0 12.0 0.00 0.24 0.00 93 1004.0
20200711034817 71 230 4.0 5.0 0.00 0.24 0.00 93 1004.1
20200711034317 71 238 4.0 8.0 0.00 0.24 0.00 93 1004.2
20200711033818 71 240 6.0 8.0 0.00 0.24 0.00 93 1004.3
20200711033317 71 242 4.0 6.0 0.00 0.24 0.00 93 1004.2
20200711032817 71 248 5.0 10.0 0.00 0.24 0.00 93 1004.2
20200711032317 71 257 5.0 9.0 0.00 0.24 0.00 93 1004.2
20200711031817 71 244 5.0 9.0 0.00 0.24 0.00 93 1004.3
20200711031321 71 267 7.0 11.0 0.00 0.24 0.00 93 1004.3
20200711030817 71 259 7.0 10.0 0.00 0.24 0.00 93 1004.4
20200711030316 71 229 8.0 9.0 0.00 0.24 0.00 93 1004.4
20200711025817 71 232 4.0 7.0 0.00 0.24 0.00 93 1004.4
20200711025316 71 207 6.0 9.0 0.00 0.24 0.00 92 1004.4
20200711024818 71 220 5.0 7.0 0.00 0.24 0.00 92 1004.5
20200711024317 71 223 5.0 6.0 0.00 0.24 0.00 92 1004.5
20200711023817 71 218 5.0 8.0 0.00 0.24 0.00 92 1004.4
20200711023316 72 218 5.0 7.0 0.00 0.24 0.00 92 1004.6
20200711022817 72 294 4.0 4.0 0.00 0.24 0.00 93 1004.5
20200711022319 72 302 2.0 4.0 0.00 0.24 0.00 93 1004.4
20200711021818 72 304 1.0 5.0 0.00 0.24 0.00 93 1004.5
20200711021317 72 211 4.0 5.0 0.00 0.24 0.00 93 1004.4
20200711020816 72 213 5.0 5.0 0.00 0.24 0.00 93 1004.4
20200711020317 72 212 3.0 5.0 0.00 0.24 0.00 93 1004.5
20200711015819 72 213 3.0 3.0 0.00 0.24 0.00 93 1004.4
20200711015318 72 213 1.0 3.0 0.00 0.24 0.00 92 1004.4
20200711014818 72 212 2.0 3.0 0.00 0.24 0.00 92 1004.3
20200711014318 72 212 2.0 3.0 0.00 0.24 0.00 92 1004.2
20200711013829 72 212 2.0 4.0 0.02 0.24 0.00 92 1004.1
20200711013316 72 213 3.0 4.0 0.21 0.24 0.00 92 1004.2
20200711012816 72 213 1.0 2.0 0.21 0.24 0.00 92 1004.1
20200711012316 72 213 2.0 3.0 0.21 0.24 0.00 92 1004.1
20200711011816 72 213 2.0 4.0 0.21 0.24 0.00 92 1004.3
20200711011316 72 213 2.0 3.0 0.21 0.24 0.00 92 1004.3
20200711010817 72 213 2.0 3.0 0.21 0.24 0.00 91 1004.3
20200711010317 72 213 1.0 3.0 0.21 0.24 0.00 90 1004.3
20200711005816 73 213 2.0 4.0 0.21 0.24 0.00 90 1004.3
20200711005317 73 213 3.0 5.0 0.21 0.24 0.00 89 1004.2
20200711004816 73 213 3.0 5.0 0.21 0.24 0.00 88 1004.3
20200711004316 74 209 2.0 7.0 0.21 0.24 0.00 86 1004.3
20200711003819 75 221 6.0 11.0 0.19 0.22 0.00 83 1004.6
20200711003316 76 245 6.0 8.0 0.00 0.03 0.00 81 1004.5
20200711002816 77 192 3.0 4.0 0.00 0.03 0.00 80 1004.2
20200711002316 77 187 3.0 5.0 0.00 0.03 0.00 79 1004.3
20200711001816 77 171 2.0 5.0 0.00 0.03 0.00 79 1004.2
20200711001316 77 167 1.0 3.0 0.00 0.03 0.00 78 1004.2
20200711000817 77 167 1.0 4.0 0.00 0.03 0.00 78 1004.2
20200711000317 77 167 1.0 4.0 0.00 0.03 0.00 78 1004.3
20200710235816 77 168 1.0 4.0 0.00 0.03 0.00 77 1004.3
20200710235316 78 165 3.0 5.0 0.00 0.03 0.00 77 1004.2
20200710234819 78 180 3.0 5.0 0.00 0.03 0.00 76 1004.1
20200710234316 78 180 2.0 5.0 0.00 0.03 0.00 76 1004.2
20200710233816 78 174 2.0 4.0 0.00 0.03 0.00 76 1004.3
20200710233316 78 178 2.0 4.0 0.00 0.03 0.00 75 1004.4
20200710232816 78 183 1.0 3.0 0.00 0.03 0.00 75 1004.4
20200710232316 78 183 1.0 4.0 0.00 0.03 0.00 75 1004.6
20200710231816 78 183 1.0 3.0 0.00 0.03 0.00 75 1004.6
20200710231316 78 183 2.0 6.0 0.00 0.03 0.00 75 1004.8
20200710230816 78 184 4.0 5.0 0.00 0.03 0.00 74 1004.8
20200710230316 77 202 2.0 5.0 0.00 0.03 0.00 74 1004.9
20200710225816 78 204 3.0 6.0 0.00 0.03 0.00 74 1004.9
20200710225316 77 205 5.0 6.0 0.00 0.03 0.00 73 1005.0
20200710224824 78 207 3.0 6.0 0.00 0.03 0.00 74 1005.1
20200710224315 78 208 7.0 7.0 0.00 0.03 0.00 73 1005.0
20200710223816 78 200 3.0 7.0 0.00 0.03 0.00 73 1005.2
20200710223316 78 198 5.0 7.0 0.00 0.03 0.00 73 1005.3
20200710222816 78 213 6.0 8.0 0.01 0.03 0.00 72 1005.4
20200710222316 78 206 2.0 5.0 0.01 0.03 0.00 72 1005.4
20200710221815 78 208 5.0 8.0 0.01 0.03 0.00 71 1005.2
20200710221316 78 217 5.0 9.0 0.01 0.03 0.00 70 1005.0
20200710220826 78 240 3.0 8.0 0.01 0.03 0.00 71 1004.8
20200710220316 78 257 7.0 8.0 0.01 0.03 0.00 71 1004.6
20200710215817 78 230 8.0 10.0 0.01 0.03 0.00 71 1004.6
20200710215315 78 252 3.0 16.0 0.01 0.03 0.00 71 1004.4
20200710214818 79 246 7.0 17.0 0.01 0.03 0.00 69 1004.2
20200710214316 79 285 10.0 14.0 0.01 0.03 0.00 68 1004.1
20200710213816 80 221 9.0 20.0 0.01 0.03 0.00 68 1004.2
20200710213315 80 246 8.0 12.0 0.01 0.03 0.00 72 1004.2
20200710212815 80 234 7.0 10.0 0.00 0.02 0.00 72 1004.2
20200710212315 81 234 3.0 7.0 0.00 0.02 0.00 71 1003.8
20200710211815 81 235 6.0 12.0 0.00 0.02 0.00 71 1003.9
20200710211315 81 244 9.0 12.0 0.00 0.02 0.00 72 1004.1
20200710210817 81 235 6.0 14.0 0.00 0.02 0.00 73 1004.3
20200710210315 80 236 7.0 15.0 0.00 0.02 0.00 74 1004.3
20200710205815 80 234 9.0 12.0 0.00 0.02 0.00 77 1004.4
20200710204815 78 218 7.0 10.0 0.00 0.02 0.00 77 1004.7
20200710204315 78 223 9.0 10.0 0.00 0.02 0.00 76 1004.7
20200710203815 78 226 5.0 7.0 0.00 0.02 0.00 77 1004.8
20200710203319 78 215 5.0 11.0 0.01 0.02 0.00 80 1005.0
20200710202817 77 238 6.0 12.0 0.01 0.02 0.00 79 1005.2
20200710202315 78 217 8.0 11.0 0.01 0.02 0.00 79 1005.1
20200710201816 78 201 7.0 10.0 0.01 0.02 0.00 79 1005.0
20200710201315 78 210 7.0 9.0 0.02 0.02 0.00 80 1005.1
20200710200815 78 199 6.0 7.0 0.02 0.02 0.00 83 1005.1
20200710200315 77 207 6.0 7.0 0.02 0.02 0.00 83 1005.0
20200710195815 77 205 4.0 7.0 0.02 0.02 0.00 84 1004.9
20200710195317 77 205 7.0 7.0 0.02 0.02 0.00 84 1005.1
20200710194815 77 197 3.0 5.0 0.02 0.02 0.00 85 1005.1
20200710194315 77 222 3.0 8.0 0.02 0.02 0.00 82 1005.1
20200710193815 77 214 6.0 8.0 0.02 0.02 0.00 82 1005.1
20200710193316 78 212 6.0 7.0 0.01 0.01 0.00 81 1004.9
20200710192817 79 180 4.0 8.0 0.01 0.01 0.00 79 1004.8
20200710192316 80 201 8.0 12.0 0.01 0.01 0.00 76 1004.8
20200710191815 81 190 5.0 11.0 0.01 0.01 0.00 73 1004.8
20200710191315 84 206 7.0 21.0 0.00 0.00 0.00 68 1004.5
20200710190815 85 234 10.0 13.0 0.00 0.00 0.00 65 1004.4
20200710190316 86 240 9.0 15.0 0.00 0.00 0.00 64 1004.4
20200710185815 86 196 7.0 13.0 0.00 0.00 0.00 63 1004.5
20200710185316 86 206 9.0 16.0 0.00 0.00 0.00 62 1004.5
20200710184815 86 215 11.0 16.0 0.00 0.00 0.00 62 1004.6
20200710184315 87 159 6.0 13.0 0.00 0.00 0.00 62 1004.5
20200710183815 87 169 7.0 13.0 0.00 0.00 0.00 61 1004.5
20200710183315 87 188 6.0 14.0 0.00 0.00 0.00 61 1004.5
20200710182815 87 197 10.0 16.0 0.00 0.00 0.00 60 1004.5
20200710182315 87 215 5.0 14.0 0.00 0.00 0.00 59 1004.5
20200710181815 87 200 6.0 13.0 0.00 0.00 0.00 59 1004.6
20200710181315 88 234 9.0 15.0 0.00 0.00 0.00 61 1004.5
20200710180815 88 187 8.0 14.0 0.00 0.00 0.00 58 1004.5
20200710180314 88 151 4.0 12.0 0.00 0.00 0.00 61 1004.5
20200710175816 89 205 7.0 15.0 0.00 0.00 0.00 60 1004.7
20200710175314 89 220 8.0 14.0 0.00 0.00 0.00 61 1004.8
20200710174814 88 186 8.0 14.0 0.00 0.00 0.00 62 1004.9
20200710174318 88 227 7.0 15.0 0.00 0.00 0.00 60 1004.8
20200710173814 88 228 10.0 14.0 0.00 0.00 0.00 57 1004.9
20200710173314 88 226 10.0 14.0 0.00 0.00 0.00 58 1004.8
20200710172815 88 188 11.0 14.0 0.00 0.00 0.00 58 1005.0
20200710172314 88 178 6.0 14.0 0.00 0.00 0.00 61 1005.0
20200710171814 88 172 12.0 16.0 0.00 0.00 0.00 61 1005.1
20200710171314 88 186 4.0 13.0 0.00 0.00 0.00 61 1005.4
20200710170814 88 224 10.0 14.0 0.00 0.00 0.00 61 1005.3
20200710170315 88 178 2.0 13.0 0.00 0.00 0.00 59 1005.5
20200710165816 88 181 2.0 13.0 0.00 0.00 0.00 61 1005.5
20200710165316 88 192 6.0 13.0 0.00 0.00 0.00 62 1005.7
20200710164814 87 198 4.0 6.0 0.00 0.00 0.00 65 1005.7
20200710164314 86 207 3.0 10.0 0.00 0.00 0.00 64 1005.8
20200710163815 86 172 6.0 9.0 0.00 0.00 0.00 64 1005.8
20200710163314 86 198 7.0 12.0 0.00 0.00 0.00 64 1006.0
20200710162814 87 209 7.0 11.0 0.00 0.00 0.00 67 1006.0
20200710162317 86 251 10.0 13.0 0.00 0.00 0.00 66 1006.1
20200710161814 85 240 6.0 11.0 0.00 0.00 0.00 69 1006.1
20200710161315 85 225 6.0 11.0 0.00 0.00 0.00 65 1006.3
20200710160814 86 209 8.0 11.0 0.00 0.00 0.00 65 1006.4
20200710160314 86 221 5.0 11.0 0.00 0.00 0.00 64 1006.4
20200710155814 86 205 5.0 14.0 0.00 0.00 0.00 65 1006.5
20200710155314 86 215 6.0 11.0 0.00 0.00 0.00 64 1006.6
20200710154814 86 236 6.0 14.0 0.00 0.00 0.00 64 1006.6
20200710154314 86 192 5.0 12.0 0.00 0.00 0.00 65 1006.7
20200710153815 86 167 7.0 12.0 0.00 0.00 0.00 64 1006.8
20200710153321 86 184 6.0 14.0 0.00 0.00 0.00 64 1006.8
20200710152814 85 186 11.0 14.0 0.00 0.00 0.00 64 1006.9
20200710152314 85 211 11.0 14.0 0.00 0.00 0.00 68 1006.9
20200710151814 84 211 10.0 11.0 0.00 0.00 0.00 66 1007.1
20200710151315 84 228 9.0 12.0 0.00 0.00 0.00 66 1007.1
20200710150814 84 220 7.0 12.0 0.00 0.00 0.00 66 1007.0
20200710150314 85 229 7.0 13.0 0.00 0.00 0.00 67 1007.0
20200710145816 85 227 12.0 14.0 0.00 0.00 0.00 65 1006.9
20200710145314 85 248 9.0 15.0 0.00 0.00 0.00 68 1006.9
20200710144815 85 244 7.0 9.0 0.00 0.00 0.00 71 1007.0
20200710144314 85 206 5.0 11.0 0.00 0.00 0.00 69 1007.0
20200710143814 85 212 7.0 10.0 0.00 0.00 0.00 70 1007.0
20200710143314 85 234 7.0 8.0 0.00 0.00 0.00 70 1007.0
20200710142814 84 239 6.0 8.0 0.00 0.00 0.00 73 1007.1
20200710142314 84 196 4.0 7.0 0.00 0.00 0.00 74 1007.2
20200710141814 83 189 4.0 9.0 0.00 0.00 0.00 75 1007.1
20200710141314 83 223 6.0 7.0 0.00 0.00 0.00 75 1007.2
20200710140816 83 188 4.0 7.0 0.00 0.00 0.00 74 1007.2
20200710140314 83 204 3.0 8.0 0.00 0.00 0.00 75 1007.2
20200710135814 83 215 5.0 10.0 0.00 0.00 0.00 75 1007.2
20200710135314 82 211 7.0 7.0 0.00 0.00 0.00 75 1007.2
20200710134847 82 210 3.0 7.0 0.00 0.00 0.00 76 1007.2
20200710134314 82 181 3.0 8.0 0.00 0.00 0.00 77 1007.2
20200710133816 81 197 3.0 7.0 0.00 0.00 0.00 77 1007.2
20200710133314 81 169 4.0 7.0 0.00 0.00 0.00 78 1007.2
20200710132814 81 191 3.0 8.0 0.00 0.00 0.00 78 1007.3
20200710132313 80 175 6.0 10.0 0.00 0.00 0.00 79 1007.3
20200710131814 80 205 5.0 12.0 0.00 0.00 0.00 79 1007.5
20200710131313 80 236 7.0 8.0 0.00 0.00 0.00 80 1007.5
20200710130813 80 183 5.0 7.0 0.00 0.00 0.00 81 1007.5
20200710130313 79 167 5.0 8.0 0.00 0.00 0.00 80 1007.5
20200710125815 79 190 8.0 9.0 0.00 0.00 0.00 80 1007.6
20200710125315 79 213 7.0 9.0 0.00 0.00 0.00 82 1007.6
20200710124813 79 206 8.0 9.0 0.00 0.00 0.00 82 1007.6
20200710124313 78 192 5.0 7.0 0.00 0.00 0.00 82 1007.6
20200710123814 78 175 2.0 9.0 0.00 0.00 0.00 83 1007.5
20200710123314 78 182 5.0 9.0 0.00 0.00 0.00 83 1007.5
20200710122813 78 180 4.0 6.0 0.00 0.00 0.00 85 1007.5
20200710122314 77 194 3.0 8.0 0.00 0.00 0.00 86 1007.6
20200710121816 77 200 4.0 8.0 0.00 0.00 0.00 86 1007.5
20200710121314 76 184 3.0 6.0 0.00 0.00 0.00 87 1007.5
20200710120813 76 215 5.0 6.0 0.00 0.00 0.00 87 1007.7
20200710120314 76 186 3.0 5.0 0.00 0.00 0.00 88 1007.7
20200710115814 75 178 3.0 5.0 0.00 0.00 0.00 88 1007.7
20200710115313 75 178 4.0 6.0 0.00 0.00 0.00 89 1007.7
20200710114813 75 191 4.0 6.0 0.00 0.00 0.00 90 1007.8
20200710114313 74 184 2.0 4.0 0.00 0.00 0.00 91 1007.8
20200710113815 74 277 2.0 3.0 0.00 0.00 0.00 92 1007.8
20200710113313 74 277 1.0 2.0 0.00 0.00 0.00 92 1007.8
20200710112813 74 277 0.0 3.0 0.00 0.00 0.00 92 1007.8
20200710112313 73 277 2.0 3.0 0.00 0.00 0.00 92 1007.9
20200710111813 73 331 1.0 2.0 0.00 0.00 0.00 93 1007.8
20200710111313 72 256 0.0 2.0 0.00 0.00 0.00 93 1007.8
20200710110813 72 256 0.0 2.0 0.00 0.00 0.00 93 1007.8
20200710110313 72 256 1.0 2.0 0.00 0.00 0.00 94 1007.9
20200710105815 72 257 0.0 3.0 0.00 0.00 0.00 94 1007.9
20200710105313 71 257 0.0 3.0 0.00 0.00 0.00 94 1007.9
20200710104813 71 286 0.0 1.0 0.00 0.00 0.00 94 1008.0
20200710104313 71 232 1.0 3.0 0.00 0.00 0.00 94 1008.0
20200710103814 70 135 2.0 2.0 0.00 0.00 0.00 94 1008.0
20200710103314 70 135 0.0 2.0 0.00 0.00 0.00 93 1008.0
20200710102813 70 135 0.0 2.0 0.00 0.00 0.00 93 1008.1
20200710102316 70 135 0.0 1.0 0.00 0.00 0.00 93 1008.2
20200710101813 70 135 0.0 2.0 0.00 0.00 0.00 93 1008.2
20200710101314 70 135 1.0 2.0 0.00 0.00 0.00 92 1008.2
20200710100815 71 135 0.0 1.0 0.00 0.00 0.00 92 1008.3
20200710100313 71 135 1.0 2.0 0.00 0.00 0.00 92 1008.3
20200710095813 71 135 0.0 2.0 0.00 0.00 0.00 92 1008.1
20200710095314 71 135 1.0 2.0 0.00 0.00 0.00 93 1008.1
20200710094817 71 135 1.0 2.0 0.00 0.00 0.00 92 1008.1
20200710094313 72 135 2.0 2.0 0.00 0.00 0.00 92 1008.1
20200710093814 72 135 0.0 1.0 0.00 0.00 0.00 93 1008.0
20200710093313 72 135 0.0 2.0 0.00 0.00 0.00 93 1008.0
20200710092814 72 135 1.0 2.0 0.00 0.00 0.00 93 1007.9
20200710092312 72 135 1.0 3.0 0.00 0.00 0.00 93 1008.0
20200710091813 72 135 0.0 3.0 0.00 0.00 0.00 93 1008.0
20200710091313 72 135 0.0 4.0 0.00 0.00 0.00 93 1008.0
20200710090815 72 135 1.0 4.0 0.00 0.00 0.00 94 1007.9
20200710090313 72 134 0.0 3.0 0.00 0.00 0.00 94 1007.9
20200710085814 71 133 1.0 3.0 0.00 0.00 0.00 94 1008.0
20200710085314 71 134 2.0 2.0 0.00 0.00 0.00 94 1008.1